{"data":{"norad_id":65299,"intl_designator":"2025-185C","name":"STARK","alt_names":[],"object_type":"PAYLOAD","status":"ACTIVE","operator":null,"country":"RWA","launch_date":"2025-08-23","launch_site_code":"RLLB","launch_vehicle":null,"mission":null,"orbit_class":"UNKNOWN","rcs_meters":null,"size_class":null,"mass_kg":null,"dimensions":null,"purposes":[],"wikipedia_slug":null,"has_3d_model":false,"image_url":null,"decayed_at":null,"tle_current":{"epoch":"2026-05-25T03:35:32.778816Z","epoch_age_seconds":76259,"freshness":"FRESH","line1":"1 65299U 25185C   26145.14968494  .00001653  00000+0  22180-3 0  9995","line2":"2 65299  97.9600 228.9077 0014753 155.1642 205.0283 14.80626166 40445","mean_motion":14.80626166,"eccentricity":0.0014753,"inclination_deg":97.96,"raan_deg":228.9077,"arg_perigee_deg":155.1642,"mean_anomaly_deg":205.0283,"bstar":0.0002218,"rev_number":4044,"period_min":97.256149666073,"perigee_km":617.01313708426,"apogee_km":637.68352209775,"semimajor_km":7005.485329591,"source":"CELESTRAK","updated_at":"2026-05-25T13:38:05.297522Z"}}}